User: anonymous   Login
Location: ????
(30.1475°N, 31.1342°E)
Time: 05:14:39
(UTC+00:00)
Language:

ATLAS CENTAUR R/B - Orbit

View from above orbital plane
View from above orbital plane
View from above satellite
View from above satellite

Ground track
Ground track

The orbit data is extracted from the following two-line orbital elements,

1 38770U 12048N   23340.22859108 0.00017500  00000-0  91099-3 0    04
2 38770  64.6539 101.8081 0101627  97.5891 262.4109 15.11308035    06
Epoch (UTC): 06 December 2023 05:29:10
Eccentricity: 0.0101627
inclination: 64.6539°
perigee height: 462 km
apogee height: 602 km
right ascension of ascending node: 101.8081°
argument of perigee: 97.5891°
revolutions per day: 15.11308035
mean anomaly at epoch: 262.4109°
orbit number at epoch: 0

The dashed part of the orbit path shows where the satellite is in the earth's shadow,  

DLR